Regional Weather Roundup
Issued by NWS

Home | Current Version | Previous Version | Text Only | Print | Product List | Glossary On
Versions: 1 2 3 4 5 6 7 8 9 10 11 12 13 14 15 16 17 18 19 20 21 22 23 24 25 26 27 28 29 30 31 32 33 34 35 36 37 38 39 40 41 42 43 44 45 46 47 48 49 50
000
ASUS43 KOAX 200910
RWRNE

WEATHER ROUNDUP FOR NEBRASKA
NATIONAL WEATHER SERVICE OMAHA NE
400 AM CDT FRI OCT 20 2017

NOTES: SATELLITE DATA IS BEING USED TO AUGMENT CLOUD COVER ABOVE
       12000 FEET.
       "FAIR" INDICATES FEW OR NO CLOUDS BELOW 12,000 FEET WITH NO
       SIGNIFICANT WEATHER AND/OR OBSTRUCTIONS TO VISIBILITY.


NEZ001>004-019>022-054>056-201000-
NEBRASKA PANHANDLE

CITY           SKY/WX    TMP DP  RH WIND       PRES   REMARKS
SCOTTSBLUFF    CLEAR     45  32  60 E6        29.75F
ALLIANCE       CLEAR     40  37  89 S8        29.75F WCI  34
CHADRON        CLEAR     54  34  46 S5        29.69F
GORDON         FAIR      53  44  72 W6        29.73F
KIMBALL        PTCLDY    40  33  75 SW7       29.79F
SIDNEY         MOCLDY    45  41  86 S10       29.77F
$$

NEZ057>060-069>072-079>082-201000-
SOUTHWEST NEBRASKA

CITY           SKY/WX    TMP DP  RH WIND       PRES   REMARKS
NORTH PLATTE   PTCLDY    59  46  62 S14       29.80F
IMPERIAL       PTCLDY    57  45  64 S17       29.79F
LEXINGTON      PTCLDY    55  46  72 S9        29.85F
MCCOOK         MOCLDY    57  46  66 S9        29.83F
OGALLALA       CLEAR     54  45  71 CALM      29.79F
$$

NEZ005>010-023>029-035>040-094-201000-
NORTH CENTRAL NEBRASKA

CITY           SKY/WX    TMP DP  RH WIND       PRES   REMARKS
VALENTINE      PTCLDY    59  43  55 SW14      29.74F
AINSWORTH      PTCLDY    57  45  62 S13       29.77F
BROKEN BOW     PTCLDY    56  45  66 S9        29.84F
O`NEILL        CLEAR     57  47  68 S13G18    29.81F
ORD            CLEAR     55  46  71 S9        29.84F
THEDFORD       CLEAR     58  45  60 S14       29.79F
$$

NEZ041-046>049-061>064-073>077-083>087-201000-
SOUTH CENTRAL NEBRASKA

CITY           SKY/WX    TMP DP  RH WIND       PRES   REMARKS
GRAND ISLAND   FAIR      57  49  74 S12       29.90F
AURORA         FAIR      56  47  73 S10       29.91F
HASTINGS       FAIR      58  48  69 S14       29.91F
HEBRON         FAIR      58  51  78 S10       29.95F
HOLDREGE       FAIR      57  48  72 S14       29.87F
KEARNEY        FAIR      57  47  69 S12       29.88F
YORK             N/A     55  50  82 S10       29.93F
$$

NEZ011>018-030>034-042>045-201000-
NORTHEAST NEBRASKA

CITY           SKY/WX    TMP DP  RH WIND       PRES   REMARKS
NORFOLK        FAIR      59  47  64 S20       29.87F
ALBION         FAIR      58  48  70 S9        29.88F
BLAIR          FAIR      58  50  75 S13       29.96S
COLUMBUS       FAIR      59  49  69 S14       29.92F
FREMONT        FAIR      61  49  64 S9        29.94F
TEKAMAH        FAIR      57  48  72 S8        29.94F
WAYNE          FAIR      56  47  72 S6        29.89F
$$

NEZ050>053-065>068-078-088>093-201000-
SOUTHEAST NEBRASKA

CITY           SKY/WX    TMP DP  RH WIND       PRES   REMARKS
LINCOLN        FAIR      57  50  77 S10       29.96F
OMAHA EPPLEY   MOCLDY    56  49  77 S12       29.98S
BEATRICE       FAIR      59  52  78 S12       29.98S
FALLS CITY     FAIR      56  52  86 S8        30.02F
NEBRASKA CITY  FAIR      57  55  93 S10       30.00F
PLATTSMOUTH    FAIR      58  53  82 S10       29.99S
$$

NEZ044-045-051>053-067-201000-
OMAHA AREA

CITY           SKY/WX    TMP DP  RH WIND       PRES   REMARKS
OMAHA EPPLEY   MOCLDY    56  49  77 S12       29.98S
BLAIR          FAIR      58  50  75 S13       29.96S
FREMONT        FAIR      61  49  64 S9        29.94F
MILLARD        FAIR      58  51  78 SE3       29.97F
OFFUTT AFB     FAIR      54  50  86 SE7       29.98S
PLATTSMOUTH    FAIR      58  53  82 S10       29.99S
WAHOO          FAIR      59  49  70 S9        29.95F
$$




USA.gov is the U.S. government's official web portal to all federal, state and local government web resources and services.